ECMWFNIL_700_spd_003.txt.gz
Wind_Speed
13 14 13 8 4 3 1 2 3 4 5 7 7 8 8 9 10 11 12 12 12 13 14 14 15 16 16 15 15 15 14 14 13 13 12 11 10 9 9 8 8 7
21 20 16 9 8 7 4 4 3 4 5 8 9 10 10 10 11 12 13 14 14 15 16 16 17 17 17 17 16 16 15 15 14 14 14 13 12 12 12 11 11 10
27 24 17 10 9 9 8 7 6 5 6 8 10 11 11 10 10 11 12 13 14 14 14 14 15 15 14 14 14 13 13 12 12 11 11 11 11 11 10 10 10 10
25 21 14 11 11 12 12 10 7 6 7 8 9 10 11 10 9 9 9 9 9 10 10 10 10 10 10 9 9 9 8 8 8 8 8 8 7 8 7 8 8 7
21 16 11 14 16 14 14 12 9 8 7 8 9 9 9 9 7 7 6 6 6 6 7 7 7 6 6 6 5 4 4 3 3 3 4 4 4 4 4 4 5 5
19 15 12 17 19 15 15 14 11 10 9 8 8 8 8 8 6 6 4 3 3 4 4 4 4 3 4 4 5 5 5 5 4 3 2 1 1 1 1 2 2 2
17 15 15 19 21 18 18 16 14 13 11 10 9 8 8 7 7 7 6 5 4 3 2 2 2 3 4 5 6 7 8 9 8 7 7 6 4 3 3 3 3 3
19 18 18 20 21 21 20 18 17 16 15 14 12 11 10 10 9 8 7 7 6 6 6 5 6 6 6 6 7 8 9 10 11 11 11 10 10 9 8 7 7 6
24 24 24 23 23 23 23 22 20 20 18 17 15 14 13 12 11 10 8 7 6 6 6 6 6 6 6 6 7 9 10 11 13 14 15 16 15 14 13 12 11 11
26 28 29 27 24 25 27 27 25 24 23 21 19 18 18 16 15 14 12 9 8 7 6 6 6 7 8 8 8 10 12 13 15 18 20 20 20 19 18 16 15 14
27 29 29 28 25 26 29 30 27 27 27 26 24 23 21 21 21 19 16 14 11 10 9 9 10 10 10 10 12 13 15 16 18 21 22 22 21 21 20 19 18 17
28 28 27 27 27 25 27 28 26 27 29 30 31 29 25 25 26 23 20 18 14 12 11 11 11 10 10 11 14 15 17 18 20 22 23 22 20 20 20 20 20 20
29 30 30 30 28 25 27 26 25 26 30 32 34 33 30 29 29 25 23 20 15 12 10 10 11 12 13 14 15 16 17 19 19 21 22 22 20 19 20 20 20 21
28 31 33 30 25 23 25 26 25 26 30 34 37 38 36 35 30 26 25 21 14 10 9 10 14 16 16 15 16 17 18 18 18 18 19 21 22 23 21 20 19 19
25 28 29 24 21 24 26 26 25 25 27 31 34 32 30 29 25 20 18 16 12 8 7 11 15 17 18 17 17 17 16 16 16 16 17 19 21 25 27 26 22 19
25 26 23 17 19 25 25 19 16 15 16 20 21 17 14 14 13 10 9 9 8 7 8 11 13 14 15 15 16 16 15 14 15 16 17 17 18 21 26 30 29 27
21 21 20 17 18 19 16 10 8 9 9 12 16 14 11 10 8 8 9 8 8 8 10 11 11 11 11 12 14 15 15 16 17 18 18 18 19 19 21 25 29 32
14 16 18 18 16 14 12 10 10 9 9 11 13 11 11 11 9 9 11 11 9 9 11 12 12 13 13 14 16 17 18 20 21 22 22 23 24 24 24 25 27 30
15 17 18 18 17 15 14 13 13 12 12 13 13 11 11 12 11 11 13 13 11 10 11 12 14 15 17 19 21 22 24 25 25 26 27 28 29 30 30 30 30 30
18 19 19 18 17 16 16 15 15 15 14 14 15 14 13 12 12 13 13 12 11 11 13 15 17 20 22 23 24 25 25 26 26 27 27 28 29 30 30 30 30 31
18 18 17 16 16 16 17 17 17 16 15 15 14 14 13 13 14 14 13 13 15 17 19 21 22 23 23 23 23 23 24 24 25 25 25 25 26 27 27 28 28 28
18 18 18 17 17 18 18 18 17 16 15 15 14 15 16 17 17 18 18 19 21 23 24 24 23 22 22 23 24 24 24 25 25 25 25 25 25 26 26 27 27 27
21 20 19 19 19 19 19 18 18 18 18 18 20 21 22 23 24 24 25 25 26 26 25 24 23 23 23 23 24 24 25 25 26 26 26 26 26 26 26 26 26 26
22 21 20 20 19 20 20 20 20 20 21 22 24 25 25 26 26 26 26 26 26 25 24 24 24 24 24 24 25 25 25 26 26 27 27 27 27 27 27 27 27 26
23 23 22 22 22 22 22 22 22 22 23 23 24 25 25 25 25 25 25 25 24 23 22 22 22 22 23 24 25 26 26 27 28 28 29 29 29 29 29 29 29 29
24 24 24 24 25 25 24 24 23 23 23 24 24 25 25 25 25 25 24 23 23 22 22 21 22 22 23 24 25 26 27 28 28 29 30 30 30 31 31 31 30 30

ECMWFNIL_700_spd_006.txt.gz
Wind_Speed
21 20 17 13 11 7 3 1 1 3 4 5 6 7 7 8 9 9 9 9 9 9 9 9 8 8 8 7 7 7 7 7 6 6 6 5 4 4 3 3 3 3
26 25 23 21 19 13 6 4 2 2 3 4 5 7 9 10 11 12 12 12 12 12 12 12 11 11 11 10 10 10 9 9 8 8 8 7 7 7 7 7 7 6
32 32 30 28 24 17 11 7 4 4 4 4 7 9 11 12 13 14 15 14 14 13 13 12 12 11 11 10 9 9 8 8 7 7 6 6 6 6 6 6 6 6
29 32 33 32 25 17 15 10 7 7 6 7 9 10 12 13 14 14 15 15 14 12 12 12 11 11 10 10 9 9 8 8 7 7 6 5 4 4 3 3 3 3
16 15 19 24 22 15 17 14 11 12 10 10 11 11 13 13 13 14 13 13 12 11 11 10 10 10 10 9 9 9 8 8 8 7 7 6 5 4 3 2 1 1
11 8 6 12 15 14 18 16 15 15 13 12 13 13 13 13 13 13 12 11 10 10 9 8 7 7 7 7 7 7 7 7 6 6 6 6 6 6 5 5 4 3
15 9 9 10 13 16 19 19 18 17 15 15 14 14 14 13 13 12 11 10 9 8 7 5 5 5 4 5 5 5 5 5 5 5 5 5 6 7 7 8 8 8
14 7 12 11 13 19 21 20 21 20 17 16 15 15 14 13 13 13 11 11 9 8 7 5 5 4 4 3 4 4 4 4 5 5 6 6 7 8 8 9 10 11
10 8 13 12 14 22 23 22 23 22 20 19 16 15 15 15 15 14 13 12 12 10 9 8 8 7 5 2 1 1 4 5 7 8 8 9 10 10 10 10 10 11
8 9 13 14 18 25 26 24 25 24 22 21 19 18 17 17 17 16 15 14 13 13 12 12 12 12 9 7 5 3 5 8 9 11 12 12 12 12 12 12 12 12
11 11 15 17 19 23 25 26 27 26 25 23 21 20 20 19 19 19 18 17 16 16 15 15 15 15 13 12 9 6 6 9 11 12 13 14 14 13 12 13 13 13
14 13 17 20 21 20 22 28 30 28 28 28 26 24 23 22 22 23 22 21 20 20 19 18 18 17 15 14 11 8 7 9 11 13 15 15 15 15 14 14 14 14
16 16 18 20 21 21 23 29 32 31 32 31 28 27 28 29 29 28 28 27 26 26 24 21 19 17 14 12 10 8 8 9 12 14 16 16 16 15 15 16 17 16
17 18 20 20 21 24 26 28 31 34 35 32 30 30 31 32 33 33 33 33 31 31 27 21 18 16 12 11 10 9 9 10 12 15 15 15 14 13 13 15 18 19
19 20 22 22 24 28 29 28 28 32 33 32 32 33 32 35 38 38 37 36 34 33 27 17 14 15 13 12 11 10 10 11 12 13 13 13 13 13 12 12 15 18
21 22 24 25 26 26 27 28 27 27 27 27 28 29 29 32 33 34 32 30 30 29 20 9 7 10 11 11 9 10 11 13 14 14 14 13 13 14 13 13 14 15
22 24 26 27 26 23 23 26 25 21 19 20 20 20 20 18 16 16 17 15 13 13 9 5 5 7 8 9 10 12 13 14 15 15 15 16 16 16 17 17 18 18
20 22 25 27 27 25 26 27 24 18 16 16 15 14 13 12 11 12 12 9 7 8 8 7 8 9 11 12 12 13 14 14 15 16 17 18 20 21 22 22 22 22
19 19 22 25 27 26 27 26 21 17 16 17 16 14 12 12 15 16 14 12 12 12 10 10 11 13 13 14 14 15 15 16 17 19 21 23 24 26 27 27 28 27
21 21 21 22 22 22 23 24 21 19 19 19 18 17 15 15 16 17 15 15 16 14 13 14 14 14 15 15 16 16 18 19 21 23 24 25 26 27 28 29 30 30
23 24 24 24 22 21 21 22 21 20 19 19 19 17 17 17 17 16 15 17 17 16 16 17 17 17 17 17 18 19 21 22 22 23 23 24 24 25 27 28 29 29
25 25 26 26 24 23 22 21 20 20 21 20 19 19 18 18 18 17 17 18 18 17 18 18 19 19 18 19 20 21 22 22 23 23 23 24 25 25 26 27 27 28
27 27 28 27 25 23 23 22 22 22 22 22 21 20 20 19 18 18 19 19 19 19 20 20 20 20 19 20 22 23 23 24 24 25 25 25 25 26 26 27 27 28
29 28 28 27 25 23 22 22 22 22 22 23 22 22 22 20 19 20 21 21 21 22 22 22 21 21 21 21 23 24 24 25 26 26 26 26 26 26 27 28 28 29
29 29 28 28 27 25 23 22 22 23 24 25 25 25 23 21 20 21 21 22 23 23 23 22 21 21 22 23 24 25 26 27 27 28 28 28 28 28 28 29 29 30
29 31 31 29 27 25 23 22 23 23 23 24 24 24 23 22 21 21 22 22 23 23 23 22 22 23 24 25 27 28 28 28 28 29 29 30 30 30 30 30 30 31

ECMWFNIL_700_spd_009.txt.gz
Wind_Speed
19 21 23 22 17 13 12 9 6 4 3 2 1 3 5 7 9 9 8 8 8 7 8 9 10 11 11 11 11 11 11 10 10 9 9 8 7 7 6 6 5 4
18 20 22 23 21 17 15 12 8 5 4 4 3 4 7 9 11 11 11 12 12 12 13 13 14 14 14 14 14 14 14 13 12 11 11 11 10 9 9 8 7 6
19 21 22 25 26 21 18 14 11 7 5 5 6 7 9 11 13 14 14 15 15 15 15 15 15 15 15 15 15 15 14 13 12 12 12 11 10 10 9 8 7 6
18 18 16 22 28 25 24 20 14 10 7 7 8 9 11 12 13 14 15 16 16 16 16 15 15 15 14 14 14 14 13 12 11 11 11 10 9 8 7 6 5 4
14 10 9 15 20 20 27 27 17 11 10 9 10 11 12 13 13 14 14 15 15 16 15 15 14 13 13 13 12 12 11 11 10 10 10 8 7 6 5 5 4 2
8 5 9 11 8 9 21 25 19 14 13 12 13 13 13 13 13 13 14 14 15 15 14 14 13 12 12 11 11 11 10 9 8 7 6 6 5 4 3 3 2 1
5 4 7 8 6 5 12 21 21 16 15 16 16 15 14 14 14 14 14 14 15 15 14 13 12 12 11 11 11 10 9 7 5 4 3 2 1 1 1 1 1 1
5 4 6 8 10 11 16 22 21 18 18 18 17 17 16 15 15 14 14 14 14 14 13 12 12 11 11 11 11 10 10 8 7 5 4 3 3 3 4 5 5 5
6 4 6 9 10 14 19 22 21 21 21 20 19 19 18 17 16 15 15 14 14 13 12 12 12 13 13 13 13 12 11 10 8 7 6 6 6 6 7 8 8 9
8 6 6 9 10 13 18 23 24 23 23 23 22 21 20 19 18 17 17 16 15 15 15 15 15 15 16 15 14 13 12 11 9 8 7 7 7 8 9 9 10 10
9 8 6 9 12 13 17 22 25 26 26 26 24 23 22 21 20 20 19 18 18 18 18 18 18 19 19 18 16 14 13 11 10 9 8 8 9 9 10 10 11 11
11 11 8 10 15 16 17 21 25 27 29 29 27 25 23 22 22 21 21 20 20 21 21 22 22 22 22 21 18 16 15 14 12 10 10 10 9 10 10 11 11 12
13 13 12 11 15 19 21 22 24 27 30 32 30 28 27 26 25 23 22 22 22 23 24 25 26 25 25 24 20 18 17 16 14 12 11 11 10 9 10 10 10 12
16 16 16 15 15 20 23 24 26 29 32 34 33 32 30 29 29 27 25 25 26 27 28 29 29 27 27 26 23 21 20 18 14 12 12 11 10 9 9 9 9 10
18 19 20 20 18 18 20 24 27 29 33 36 36 35 33 31 32 32 30 30 31 31 32 33 33 32 30 29 28 25 22 17 14 12 13 13 11 10 10 10 10 10
20 21 23 23 21 20 21 23 24 25 30 37 39 37 36 35 36 35 35 36 36 35 36 37 37 35 31 28 28 26 22 17 14 14 14 14 13 12 12 12 13 13
21 22 23 22 22 22 23 24 24 24 25 34 42 44 42 40 39 37 38 39 36 34 38 40 36 31 26 22 21 21 21 18 16 16 16 16 15 15 15 15 15 15
21 22 22 22 22 23 25 25 26 24 21 24 34 43 43 40 36 34 35 35 28 23 25 28 25 21 19 19 18 18 18 17 16 17 17 17 16 16 16 17 18 19
19 20 21 22 22 23 24 25 24 22 19 18 21 28 31 31 28 25 26 27 22 17 16 18 18 16 17 18 18 17 17 16 16 17 17 16 17 18 18 19 20 21
17 18 19 21 22 23 24 24 23 21 20 19 19 21 23 23 21 20 21 22 20 18 17 18 18 16 17 18 18 18 18 17 17 18 17 18 18 19 20 20 21 21
17 18 19 20 21 23 25 26 24 22 21 20 21 22 23 22 20 21 22 22 20 19 19 21 19 18 19 20 20 20 19 19 19 18 18 18 19 19 20 20 22 23
19 20 20 21 21 22 24 27 28 25 22 22 22 24 25 25 24 23 22 22 21 21 23 23 21 20 21 21 21 21 20 20 19 19 19 19 19 20 21 22 24 25
21 20 21 20 20 20 23 26 29 28 26 25 25 27 29 29 27 25 23 22 22 23 24 25 23 22 23 24 23 23 21 21 20 20 20 20 20 22 23 25 26 26
22 21 22 21 20 20 22 24 27 28 27 27 26 27 29 29 27 26 24 23 24 25 27 27 26 24 25 25 25 24 23 22 21 21 21 22 22 24 25 26 27 28
23 23 22 22 21 21 21 23 25 27 28 28 27 25 24 24 23 23 24 26 28 29 29 28 27 26 27 26 25 25 24 23 23 23 23 24 25 26 27 28 29 29
24 23 23 23 23 22 22 24 26 27 28 30 29 27 25 24 23 23 24 27 28 26 26 27 28 28 28 27 26 25 25 25 25 25 25 26 27 28 30 31 31 31

ECMWFNIL_700_spd_012.txt.gz
Wind_Speed
17 18 19 18 19 20 18 16 15 15 14 12 8 5 4 4 6 7 7 8 8 9 9 10 11 11 12 13 14 13 12 12 12 12 12 11 11 11 10 9 8 7
13 14 16 19 21 22 21 18 17 16 13 11 9 6 6 6 7 8 8 9 9 10 11 12 13 14 15 16 16 16 15 15 14 14 13 13 12 12 11 10 9 9
9 10 12 16 20 22 22 19 19 16 10 8 8 7 7 8 10 10 10 11 12 13 14 14 15 15 16 16 16 17 16 16 15 14 14 13 13 12 11 10 10 9
7 7 8 11 16 20 21 19 20 19 13 9 8 8 9 10 12 12 12 13 14 14 14 14 15 15 15 15 16 16 16 15 14 13 13 12 12 11 10 9 8 8
6 5 5 8 12 16 17 17 19 21 20 15 9 10 12 12 12 13 14 15 15 15 15 14 14 14 14 14 14 15 14 14 13 12 11 10 10 9 8 6 6 5
4 5 6 8 11 13 15 16 17 20 23 20 12 11 13 13 13 14 14 15 15 15 15 14 14 13 13 13 13 13 13 12 11 11 11 10 9 8 6 5 4 3
3 5 8 10 10 12 15 15 15 17 20 19 14 12 15 15 14 15 15 15 15 14 15 14 14 14 13 13 13 13 13 12 11 10 9 9 8 8 7 6 6 5
3 4 6 8 8 11 14 14 16 19 19 18 17 16 17 18 17 17 16 15 15 15 15 15 14 14 14 14 13 13 12 12 11 10 9 9 8 7 7 7 7 6
7 5 5 6 7 9 11 13 17 22 21 20 20 20 21 20 19 19 18 18 17 17 16 15 15 15 14 14 14 14 13 13 12 11 10 10 9 8 8 8 8 7
8 8 7 5 7 8 9 13 21 25 24 23 23 22 23 22 21 20 20 19 19 19 18 17 16 16 16 16 15 15 14 13 13 12 11 10 9 8 8 8 8 8
9 10 8 5 8 9 10 17 25 27 26 25 25 25 24 24 23 23 22 21 21 21 20 20 19 19 19 19 17 17 16 15 14 13 13 12 11 10 9 8 8 8
9 11 10 7 9 11 13 18 24 26 26 27 27 27 26 26 25 25 24 23 23 22 22 22 21 22 22 22 20 20 19 18 16 15 15 14 12 11 10 9 9 8
9 11 11 9 10 12 15 19 24 26 27 28 29 29 28 28 28 27 27 26 25 24 24 24 23 23 24 24 23 23 22 21 19 17 16 15 13 12 11 11 10 10
9 11 12 12 11 13 16 19 23 25 27 30 31 31 31 30 30 29 29 29 28 27 26 25 24 25 26 27 27 26 25 24 22 20 18 16 14 12 12 12 11 11
8 10 12 13 13 14 17 19 22 25 28 31 33 33 33 33 32 32 32 31 30 29 28 26 26 26 27 29 30 30 30 28 25 23 21 20 17 15 13 12 12 12
9 10 12 13 14 16 18 20 22 26 29 31 33 35 36 36 36 35 35 34 33 31 30 29 28 29 29 30 32 34 34 31 29 28 27 24 21 16 14 13 13 14
12 12 12 13 14 16 18 20 22 24 27 28 30 31 34 37 39 40 39 38 36 35 33 33 33 33 33 34 35 36 34 32 32 33 33 30 25 18 15 15 15 15
14 14 15 15 15 16 18 19 20 21 23 25 26 28 31 36 40 43 43 42 41 39 37 37 37 36 36 37 39 39 38 36 36 36 34 34 30 23 18 16 16 15
16 16 16 17 17 17 17 18 18 18 20 22 23 26 30 33 35 40 46 48 45 43 42 41 40 38 37 39 41 42 42 41 40 36 32 32 29 24 20 17 16 16
19 18 18 18 18 18 18 19 18 18 18 20 21 23 26 29 31 34 42 50 50 47 45 45 41 38 37 38 39 38 37 36 33 29 27 26 24 21 19 18 17 17
21 20 20 20 21 21 21 21 21 21 20 20 21 22 23 26 28 30 34 43 51 51 47 45 41 37 35 34 33 31 29 28 26 23 22 22 21 19 18 17 17 16
22 22 23 23 23 23 23 23 24 24 23 23 24 25 24 24 25 27 27 31 41 46 44 41 37 34 32 31 28 26 25 24 24 23 22 21 20 19 18 18 17 17
25 26 27 28 27 27 26 26 26 26 26 27 27 26 25 24 24 25 26 26 31 36 38 37 34 32 31 30 28 25 24 24 25 24 23 22 21 20 19 19 19 19
28 29 30 31 31 31 30 29 28 26 26 28 28 25 24 24 24 24 26 28 30 33 35 35 32 31 30 31 29 26 24 24 25 25 24 23 21 21 20 20 20 20
31 31 32 33 33 32 32 30 29 27 25 26 26 25 23 23 25 25 25 28 32 35 36 34 30 30 32 33 32 29 25 25 25 25 24 23 22 22 21 21 21 21
32 32 32 32 31 31 31 30 29 28 26 26 26 25 24 24 25 26 26 28 32 36 38 36 32 31 33 36 35 31 27 26 27 26 24 24 23 23 22 22 22 22

ECMWFNIL_700_spd_015.txt.gz
Wind_Speed
20 20 20 19 19 17 17 17 16 15 15 15 15 14 14 11 9 8 8 8 9 9 9 9 10 11 13 12 12 12 11 11 11 12 12 12 12 11 11 10 9 9
20 20 19 18 18 18 18 18 17 17 16 14 13 14 14 11 9 8 9 9 10 10 10 10 10 11 12 13 13 12 11 11 12 12 12 12 12 12 11 10 10 10
18 18 17 17 17 17 17 18 18 17 15 13 12 12 12 11 9 9 9 10 10 11 11 11 11 12 13 13 13 12 12 13 13 13 14 14 13 13 13 12 12 11
18 16 14 14 14 15 15 15 15 14 12 10 10 10 10 9 10 10 10 10 11 11 12 11 12 12 13 14 13 13 14 15 15 15 15 15 15 14 14 13 12 12
16 14 13 12 12 13 12 11 12 11 9 8 8 9 8 8 10 11 11 11 12 12 12 12 12 12 13 14 14 14 15 15 16 16 15 15 15 14 13 12 11 11
14 13 12 12 12 13 12 11 11 10 11 12 9 8 9 9 10 11 11 12 12 12 12 12 12 12 13 13 14 14 15 15 15 15 15 14 14 13 11 10 9 8
12 11 10 11 13 14 13 13 12 12 14 15 13 11 10 11 12 12 13 13 13 13 12 12 12 12 11 11 11 11 12 13 13 13 12 12 11 10 9 8 7 6
10 9 10 12 14 15 14 14 13 13 15 15 14 14 14 14 14 14 15 15 14 13 13 12 12 11 10 10 9 9 9 9 9 9 9 9 8 7 7 6 5 5
7 6 7 9 12 12 11 11 11 13 14 13 13 15 17 18 17 16 16 15 15 14 14 13 12 11 10 9 8 7 7 6 6 6 6 6 6 6 6 5 5 5
6 6 6 7 8 8 7 8 8 10 12 15 16 16 19 20 19 18 17 16 16 15 14 13 12 12 11 10 9 8 7 7 6 6 6 6 7 7 6 6 6 7
6 7 7 6 6 5 6 8 8 9 12 16 19 19 20 21 20 19 19 18 18 17 16 15 15 14 13 12 12 11 10 9 9 9 9 9 10 10 9 8 8 8
6 6 7 6 5 6 6 7 9 11 14 18 20 21 22 23 22 22 21 21 20 20 19 19 18 18 17 16 15 14 13 13 13 12 12 13 13 13 13 12 11 11
4 5 7 6 6 7 7 8 9 12 14 17 20 20 22 23 24 24 24 23 23 23 22 22 22 21 20 20 19 18 18 17 17 17 17 17 17 17 17 15 13 12
5 6 7 6 6 7 9 10 10 12 14 16 19 21 22 24 26 27 26 26 26 26 26 25 25 24 23 22 22 22 22 21 21 21 20 20 20 20 20 18 17 15
8 8 8 9 9 9 10 11 11 13 15 17 19 23 24 25 27 29 29 29 29 29 29 29 28 27 26 26 25 25 25 25 25 25 24 24 24 23 21 20 19 17
11 11 11 12 13 13 12 12 13 15 17 19 21 25 26 27 29 31 32 32 32 32 32 32 31 30 29 28 28 28 28 29 28 28 28 28 28 26 24 23 21 19
11 12 14 15 16 16 15 14 14 16 19 20 22 25 28 29 30 32 34 34 34 35 35 35 34 33 31 31 31 31 30 31 31 31 32 31 29 29 29 27 26 25
11 12 14 16 18 19 19 17 17 17 20 22 24 26 30 31 31 32 35 36 36 37 38 37 37 36 35 34 35 33 32 32 33 32 33 33 30 30 31 31 30 32
12 12 14 16 18 20 21 19 18 18 20 23 24 26 30 33 33 33 36 38 38 39 40 40 40 40 39 38 38 37 36 36 36 35 36 36 35 34 35 36 37 37
13 13 14 16 18 20 21 20 19 19 20 21 22 24 26 28 30 31 33 35 36 38 41 44 45 45 44 43 42 42 41 40 38 38 39 38 39 39 38 39 40 35
14 14 14 15 17 20 21 22 21 21 20 21 22 23 24 25 26 27 28 29 30 33 36 40 44 47 47 47 47 46 45 43 41 41 41 40 41 41 37 34 32 27
16 15 15 16 17 18 20 22 22 22 23 23 24 25 26 26 27 28 28 27 27 28 30 33 38 43 45 47 50 51 48 45 42 41 42 41 39 35 30 26 23 21
18 18 19 19 20 21 23 24 24 25 25 26 28 29 29 29 30 30 30 28 26 27 29 32 35 37 38 40 47 52 51 48 45 43 42 40 34 28 25 23 22 22
23 23 24 24 24 25 27 28 28 29 29 29 31 32 33 33 33 34 33 31 29 29 32 34 33 32 32 34 38 42 44 45 44 42 40 36 30 27 25 23 23 25
28 29 29 29 29 30 31 31 32 33 33 32 32 34 35 34 34 36 35 33 32 32 34 34 33 30 29 31 32 33 35 37 39 39 37 33 30 30 27 25 25 26
33 33 34 34 34 34 35 35 35 35 36 35 35 35 36 35 34 35 35 34 33 34 34 33 32 31 28 29 32 32 31 33 34 35 35 33 31 30 28 27 27 27

ECMWFNIL_700_spd_021.txt.gz
Wind_Speed
15 12 12 12 13 12 12 12 13 12 10 8 5 5 5 4 4 3 2 3 2 2 4 5 6 7 7 7 7 7 6 6 6 7 9 11 12 12 13 13 12 12
15 12 11 11 12 12 12 13 13 13 12 9 7 6 5 4 4 3 2 2 2 2 3 5 5 5 6 6 6 6 5 4 5 6 8 10 12 12 12 12 12 12
14 12 12 12 12 11 11 12 12 12 12 10 7 6 5 5 4 2 2 2 1 1 3 4 5 5 7 7 6 6 4 3 5 7 8 10 11 11 11 11 10 11
13 12 12 12 11 10 11 11 10 11 11 9 7 6 4 4 3 1 2 0 1 2 3 4 3 4 6 7 6 6 5 5 7 8 8 9 9 8 8 9 9 11
14 12 12 11 10 9 10 9 9 10 10 8 6 5 4 4 2 0 1 1 1 2 4 4 4 5 6 7 6 6 6 6 7 8 9 9 9 9 9 10 10 12
14 12 11 10 9 9 9 9 10 10 10 8 5 5 5 4 3 1 0 1 2 3 4 4 5 5 6 6 5 5 6 6 7 8 9 9 9 10 10 10 10 10
13 11 10 9 8 8 7 8 9 9 8 6 5 5 6 6 5 2 1 2 3 4 5 5 5 5 5 5 5 5 5 5 6 7 7 8 8 9 9 10 11 11
11 9 8 8 7 6 6 7 8 7 6 4 4 5 7 8 6 3 2 3 5 6 5 5 5 5 5 5 5 4 4 4 5 6 7 7 8 8 9 10 11 11
9 9 8 7 6 5 5 6 5 4 4 3 2 4 8 9 7 5 4 5 6 6 5 5 5 6 6 6 5 5 4 4 5 6 7 8 9 9 10 11 11 10
10 9 8 8 7 5 3 3 3 2 2 2 2 1 7 10 10 7 6 6 6 6 5 4 5 6 6 6 6 6 6 6 6 7 8 9 8 8 8 9 8 7
11 10 9 8 6 4 3 1 1 1 1 2 3 2 4 9 12 10 9 8 7 6 6 5 5 6 7 6 6 6 7 7 7 7 8 7 6 5 6 6 6 5
11 10 8 7 6 5 4 2 1 1 2 2 3 3 4 8 12 13 11 10 9 8 7 6 6 6 6 6 6 5 6 7 7 7 6 6 5 4 5 5 6 6
11 9 7 7 7 6 4 3 1 1 1 2 2 3 4 7 10 13 13 11 11 10 10 9 8 8 8 8 8 7 8 8 9 8 8 7 7 7 7 7 8 8
10 9 8 8 7 6 5 3 2 1 1 2 1 1 3 5 8 11 12 12 12 12 12 12 12 12 12 11 11 11 11 11 11 11 11 12 12 12 12 11 12 12
11 10 9 9 7 6 5 3 2 1 2 3 3 2 1 2 4 7 9 12 13 14 14 14 14 15 14 14 14 15 15 15 15 15 15 16 16 17 17 16 15 16
13 11 10 9 8 7 6 5 3 3 3 4 5 5 4 3 4 6 8 10 13 15 16 16 16 17 17 18 18 18 18 18 18 19 19 20 20 21 21 20 20 20
14 13 12 11 10 8 8 8 7 6 5 6 7 8 7 7 7 7 8 10 11 14 16 17 17 17 18 19 21 22 22 22 22 23 23 24 24 25 25 25 25 26
17 16 14 13 12 11 11 11 10 9 9 9 10 10 10 10 10 11 11 12 12 13 15 18 19 18 17 19 21 23 24 24 25 26 27 27 28 29 29 30 30 30
21 19 17 15 13 13 13 13 12 12 12 12 12 13 13 12 12 13 14 14 15 16 18 20 21 21 21 21 22 22 23 24 25 27 29 30 30 31 32 34 34 34
25 23 20 18 17 17 16 16 16 16 15 15 16 15 15 14 15 16 16 16 17 18 20 21 23 25 25 25 25 25 26 26 26 28 30 31 32 34 35 36 37 36
25 22 20 18 18 19 19 20 20 19 19 19 19 18 17 17 18 18 18 18 18 18 19 20 22 24 26 26 26 26 28 29 29 30 30 31 33 36 36 37 37 35
21 19 18 17 17 18 19 19 20 20 20 20 20 20 19 19 19 19 20 20 20 20 20 20 21 23 24 24 24 24 26 28 29 29 30 30 31 33 33 33 34 33
19 18 17 17 17 17 18 18 19 20 20 20 20 20 20 20 20 21 21 21 21 22 22 23 24 25 25 25 25 26 27 28 29 30 30 30 31 31 30 30 31 33
18 17 17 16 16 16 17 18 19 19 20 21 22 22 23 23 23 23 23 24 24 24 26 28 29 30 30 30 29 29 29 30 31 32 32 32 32 32 32 31 32 33
19 19 19 19 19 19 20 20 21 22 23 24 25 26 27 27 27 28 28 28 29 29 31 33 33 33 33 32 31 30 30 31 33 34 34 33 33 33 34 34 34 35
23 23 24 24 24 25 25 26 26 27 28 29 30 31 32 32 33 34 35 35 35 35 35 36 36 36 35 33 32 32 32 33 34 34 34 34 33 33 34 36 36 36

ECMWFNIL_700_spd_024.txt.gz
Wind_Speed
15 13 12 10 9 9 9 9 9 8 7 6 5 6 5 4 4 5 7 6 4 3 2 2 3 6 7 7 7 6 6 5 4 5 6 7 8 9 9 10 11 12
16 15 13 11 8 8 7 8 8 7 6 5 5 6 6 5 4 5 7 6 5 5 4 3 4 6 7 7 7 7 6 5 4 3 3 4 5 6 7 7 8 9
17 16 15 12 9 8 7 7 7 6 5 4 2 4 6 6 5 5 6 6 6 5 5 5 5 6 7 8 8 7 6 5 4 3 2 3 3 4 5 6 7 8
17 17 16 12 10 8 6 6 6 6 6 4 0 2 4 6 5 5 6 6 6 6 7 7 7 7 7 8 7 6 5 3 2 2 2 2 3 4 5 6 8 9
17 17 14 12 10 7 6 6 6 6 6 5 1 2 4 4 5 6 6 6 7 7 8 8 8 8 8 8 8 6 5 3 2 2 2 3 4 6 7 8 9 10
17 16 14 12 9 6 5 5 5 5 6 5 3 3 5 5 5 6 6 6 7 7 8 9 9 8 8 8 8 6 5 4 3 3 4 6 7 7 8 9 10 11
18 16 14 12 8 5 4 4 5 5 5 5 4 3 7 7 6 6 6 7 8 8 8 9 8 8 8 8 7 5 4 3 3 4 5 6 7 7 8 8 9 10
18 16 14 10 7 5 4 5 5 5 4 4 3 3 7 9 7 7 7 8 9 9 9 9 9 9 9 9 8 6 5 4 4 4 5 5 6 6 7 8 9 9
17 15 12 8 6 6 6 6 5 5 4 3 2 4 8 9 8 7 9 10 10 10 9 9 9 9 9 10 9 8 6 5 5 6 6 6 7 7 8 8 9 9
16 14 10 7 7 7 7 6 5 5 4 2 3 5 9 11 9 9 11 11 10 10 10 9 9 9 9 10 10 9 8 7 6 6 8 8 9 9 8 8 8 8
16 12 9 8 8 8 8 6 5 5 4 3 4 6 8 11 11 10 11 12 10 10 10 9 9 9 9 9 10 9 9 9 8 8 8 9 9 9 8 8 8 7
15 12 10 10 9 9 8 6 5 5 5 5 5 6 7 9 11 11 11 12 11 10 10 9 8 8 8 9 9 9 9 9 9 9 9 8 8 8 8 8 7 7
15 14 12 10 10 10 9 8 6 6 5 6 7 7 7 8 10 11 11 11 11 10 10 9 8 8 8 8 8 8 9 9 10 10 10 9 8 8 7 7 6 6
17 15 12 11 11 10 10 9 8 7 6 7 7 8 8 8 9 10 11 11 10 10 10 10 10 9 9 9 9 9 10 10 10 10 10 10 9 9 8 7 7 8
19 15 13 13 12 12 12 10 9 8 7 7 7 7 7 7 8 9 10 11 11 10 10 10 10 10 10 10 10 10 10 11 11 11 11 11 11 11 11 11 11 12
19 17 16 16 16 15 14 12 10 9 8 7 7 7 7 6 7 8 10 10 11 11 11 12 12 12 12 13 13 12 12 13 13 14 14 14 15 15 16 16 16 16
19 18 17 18 18 16 15 13 12 10 9 8 7 7 8 7 7 8 9 11 11 12 12 13 14 14 15 16 16 15 16 16 17 18 18 19 19 19 20 21 21 21
20 19 19 18 17 15 14 13 12 11 10 9 9 9 9 9 9 9 10 12 12 13 14 15 15 16 16 17 18 17 17 19 20 22 23 23 23 24 24 25 25 25
19 19 19 18 17 15 15 15 14 13 12 12 11 11 10 10 10 10 11 12 12 12 14 15 16 17 18 18 19 19 19 20 22 23 23 24 25 26 27 28 28 29
19 19 19 20 19 18 17 17 16 15 14 13 12 12 11 11 10 10 11 12 12 13 14 14 14 16 18 19 20 21 21 22 23 23 24 24 25 26 27 28 29 30
21 21 21 20 20 19 18 17 16 15 14 13 12 12 12 12 11 12 13 13 14 15 16 16 16 16 17 18 19 20 21 22 23 23 24 25 25 26 27 28 29 30
24 24 22 21 20 19 18 17 17 16 16 15 15 15 14 14 14 14 15 15 16 17 18 18 19 19 19 20 20 21 21 22 22 22 23 24 25 25 26 27 28 29
24 23 23 22 21 20 19 19 19 19 18 18 17 17 17 17 18 18 18 19 19 20 21 21 21 22 22 22 22 22 23 23 24 26 27 27 28 28 28 29 29 29
23 23 23 22 22 22 22 21 22 21 21 21 21 21 21 21 21 22 22 23 24 24 25 26 25 25 25 25 25 26 27 27 27 29 31 31 31 31 32 33 33 33
24 24 23 22 22 22 23 23 23 23 23 23 23 24 24 25 26 27 27 27 28 28 29 30 30 29 29 29 30 30 31 32 32 34 35 35 35 35 35 36 36 35
23 23 23 23 24 25 25 25 25 25 25 26 26 27 28 29 30 31 31 31 31 32 33 34 34 34 34 35 35 36 37 38 39 40 40 39 38 38 38 39 39 39

ECMWFNIL_700_spd_027.txt.gz
Wind_Speed
13 12 11 10 8 7 8 10 10 10 11 12 10 7 5 6 7 9 10 8 7 7 6 6 5 6 8 11 12 12 12 10 9 8 9 9 10 10 10 11 10 9
14 14 13 11 9 8 8 9 9 10 11 11 10 7 7 7 7 8 9 9 8 8 8 7 7 8 9 10 11 11 11 9 8 7 7 6 7 8 9 9 8 7
16 15 13 11 10 9 9 9 9 9 10 10 9 6 7 8 8 8 8 8 8 9 9 8 9 9 10 10 10 10 10 9 8 7 6 5 6 7 7 7 6 5
17 15 14 13 11 10 10 9 8 9 9 9 7 5 6 8 8 7 7 7 8 8 9 9 9 10 9 10 10 9 8 7 7 8 8 7 7 7 7 6 5 5
18 16 15 13 11 11 10 9 8 9 8 8 7 5 6 7 7 6 6 7 7 8 10 10 10 10 9 9 9 9 8 7 8 8 8 8 8 8 7 6 6 5
19 18 16 14 12 11 10 9 8 8 8 7 7 5 7 7 7 6 5 6 7 8 9 10 9 9 9 9 9 9 9 8 8 7 7 7 7 6 5 5 5 5
19 18 16 14 12 11 10 9 9 8 7 7 6 5 7 8 7 6 5 6 7 9 9 8 8 9 9 9 9 9 8 7 7 7 6 5 5 4 3 2 2 3
20 19 16 14 12 10 10 10 9 8 7 6 6 5 7 9 7 6 6 7 8 9 9 8 8 9 9 9 9 9 9 8 8 8 7 6 5 4 3 1 1 1
21 20 17 13 10 10 10 9 8 8 6 6 6 5 7 10 8 6 7 7 9 10 10 10 10 10 10 10 10 10 10 9 9 9 9 8 7 6 4 3 3 3
22 20 15 12 10 11 11 9 8 7 6 6 6 5 7 11 9 7 7 8 10 11 11 11 11 11 11 11 11 11 10 10 9 9 9 9 9 8 7 5 5 5
22 18 15 13 11 11 10 9 8 7 6 6 7 5 7 11 10 8 8 10 10 11 12 12 12 12 12 11 11 11 10 10 10 9 9 10 10 9 8 7 6 6
21 17 15 14 12 10 9 9 7 7 6 7 7 6 7 11 12 9 10 12 11 11 12 12 12 12 11 11 11 10 10 10 10 10 9 9 9 9 8 7 5 4
19 15 14 14 13 11 10 10 9 8 7 7 8 7 8 12 13 12 12 13 13 12 12 12 12 11 11 11 10 10 10 10 10 10 9 8 8 7 7 6 5 4
13 12 13 14 13 12 12 12 11 9 8 8 8 8 8 12 15 15 14 14 14 13 13 12 12 12 12 11 10 10 10 9 10 10 10 9 9 8 8 7 7 7
14 15 15 15 14 13 14 14 13 10 9 9 9 8 8 10 13 15 15 15 14 13 13 12 12 12 12 12 12 11 11 11 11 11 11 11 11 10 10 10 9 10
17 17 16 16 15 15 15 14 13 12 11 11 10 10 10 10 11 13 14 15 15 14 13 12 12 12 13 13 13 13 13 13 13 13 13 13 13 13 13 12 12 13
17 18 17 17 17 17 16 14 14 14 14 14 13 13 12 12 12 12 12 14 14 14 13 13 13 13 13 13 14 14 15 15 15 15 16 16 16 15 15 15 15 16
17 18 19 19 19 19 18 16 16 16 16 15 16 15 14 13 13 13 13 14 15 15 15 15 15 15 15 15 15 15 16 16 17 17 18 18 18 18 18 19 19 19
16 18 19 19 18 19 20 19 18 18 17 17 17 16 15 14 13 13 14 14 15 15 15 16 16 17 17 17 17 18 18 19 20 20 20 20 21 21 22 22 22 23
16 18 19 20 20 20 21 22 21 20 21 20 18 16 16 16 15 15 14 15 15 16 16 16 16 17 18 19 20 20 21 22 23 23 23 23 23 24 24 24 24 25
18 19 21 22 22 22 23 23 23 23 23 21 18 17 17 17 16 16 16 16 16 17 17 17 17 18 19 20 21 22 23 25 26 26 27 27 27 26 26 26 26 26
19 20 22 23 24 25 26 25 24 24 23 21 19 19 19 19 19 19 18 18 18 19 19 19 19 20 21 21 22 23 24 25 26 27 29 30 30 30 30 30 29 30
22 23 24 25 26 27 27 26 25 24 24 23 22 22 22 22 22 22 21 21 21 21 21 21 21 22 23 23 24 24 24 25 25 26 27 27 28 28 29 30 31 32
22 24 25 26 27 26 26 25 26 26 25 25 25 24 24 24 24 24 23 22 22 22 22 22 22 23 24 24 25 25 26 26 26 27 27 27 27 27 28 29 31 32
23 23 23 23 24 23 23 24 25 25 26 26 25 26 25 25 25 24 24 24 24 24 24 24 24 24 25 25 26 26 28 28 29 30 30 30 30 30 31 31 32 33
22 22 22 22 23 22 21 21 21 22 24 25 25 26 26 26 26 26 25 25 26 26 27 27 27 27 28 29 29 30 31 32 33 34 35 35 35 36 36 37 37 37

ECMWFNIL_700_spd_030.txt.gz
Wind_Speed
14 13 11 9 8 6 4 5 8 10 11 10 10 9 7 6 6 7 7 7 7 8 7 7 8 9 10 13 14 14 13 12 11 11 11 11 11 11 11 11 10 9
15 13 11 10 8 7 6 7 9 11 12 12 11 10 8 7 7 7 6 6 7 8 8 8 8 8 9 11 13 14 14 13 12 12 12 12 12 12 13 12 11 9
15 12 10 10 9 9 8 9 11 13 13 14 13 11 9 6 7 7 6 5 7 8 9 8 8 9 10 11 12 13 13 13 12 12 11 11 11 11 11 10 9 9
14 11 10 11 11 11 10 11 13 14 14 14 14 12 9 6 7 7 6 6 7 8 9 9 9 9 10 10 12 12 12 11 11 10 9 9 9 9 10 9 9 9
14 12 12 12 12 11 11 12 14 14 14 15 14 12 9 6 6 7 7 7 7 8 9 9 9 9 10 10 11 11 11 10 9 9 9 9 9 9 10 10 10 11
15 14 14 12 12 11 11 13 14 14 14 15 14 12 9 7 7 8 8 7 7 8 9 10 10 10 10 10 11 11 11 10 10 9 9 9 9 9 10 10 10 10
17 16 15 13 12 12 12 14 14 14 14 15 14 11 8 7 7 8 9 7 7 8 10 10 10 11 11 11 11 11 11 10 10 9 9 9 10 10 10 9 10 9
20 18 17 15 14 13 14 14 14 14 14 14 13 10 7 7 9 10 9 7 7 9 9 10 10 11 11 11 11 11 10 10 10 10 10 10 10 10 10 10 9 9
22 21 19 18 17 16 15 15 15 14 13 13 12 9 7 6 9 10 8 7 7 8 9 10 11 11 10 11 11 11 11 11 11 11 11 11 11 11 11 11 10 10
24 23 22 21 19 18 16 15 15 14 13 13 11 9 6 6 9 11 9 7 8 9 10 11 11 11 11 11 11 11 11 11 12 11 11 12 12 12 12 12 12 12
25 25 24 23 21 19 18 16 15 14 13 12 11 8 6 7 10 11 9 8 9 10 11 11 12 12 13 12 11 11 11 11 11 11 11 11 11 12 13 13 12 12
27 27 26 24 22 19 17 16 15 14 13 12 10 8 7 8 11 12 10 10 11 11 12 12 13 13 13 12 12 11 11 11 10 10 10 10 11 11 12 12 11 11
31 31 29 26 23 20 18 17 15 13 12 11 10 9 7 9 13 13 11 11 12 12 13 13 13 13 12 12 12 11 11 11 11 11 10 10 11 11 11 11 10 9
33 33 31 28 25 23 20 17 15 13 11 11 10 10 8 9 13 14 12 12 13 13 13 13 13 13 12 12 11 11 10 11 11 11 11 11 11 10 9 9 8 8
29 27 26 26 25 23 18 15 14 13 12 12 11 10 9 10 13 15 14 14 14 14 13 13 13 12 12 12 11 11 11 11 12 12 12 11 10 10 9 9 9 8
20 22 23 23 23 21 18 16 15 14 13 13 12 11 10 10 13 16 16 16 15 15 14 13 13 12 12 12 12 12 12 12 12 13 13 12 12 11 11 11 11 10
18 21 22 23 22 21 19 18 16 15 14 14 13 12 11 11 13 15 17 17 16 15 14 13 13 13 13 13 13 13 13 13 13 13 14 14 14 13 13 13 13 13
18 20 22 22 22 21 20 19 16 15 15 14 13 12 11 11 12 14 16 17 17 16 16 15 15 15 15 15 15 15 15 15 15 15 15 16 16 16 16 16 16 16
19 21 23 22 21 21 21 20 18 17 17 16 15 14 12 12 12 13 14 15 16 17 17 17 17 17 17 17 17 17 18 18 18 18 19 19 19 19 20 20 20 21
19 20 21 21 21 22 22 21 20 19 18 18 17 16 15 14 13 14 13 14 15 16 17 18 18 18 17 18 18 18 19 19 20 21 22 22 23 23 24 24 25 25
18 18 19 20 21 22 23 23 22 21 20 19 19 18 18 17 16 15 14 14 14 15 16 17 18 18 18 18 18 18 19 19 20 21 22 23 23 24 25 26 27 28
18 18 20 21 22 23 24 23 23 23 22 22 21 20 20 19 19 18 17 17 17 17 18 18 19 20 20 20 20 20 21 21 21 22 22 23 23 24 25 26 28 29
16 17 19 20 22 24 25 25 25 26 25 24 24 24 24 23 22 21 21 21 22 22 22 23 23 24 24 24 24 24 24 24 24 24 24 24 25 26 27 28 30 31
16 16 18 19 22 24 25 26 27 28 28 28 28 27 26 26 25 25 25 25 26 26 26 26 27 27 28 28 28 27 27 27 27 26 26 27 27 27 28 29 30 32
16 17 18 20 21 22 22 22 22 23 27 30 30 30 29 28 27 28 27 27 27 26 25 26 26 27 28 29 29 28 28 28 28 28 28 29 29 29 29 30 31 31
18 19 19 20 20 20 21 21 20 21 23 24 24 26 28 28 27 27 27 27 27 26 25 25 26 27 28 28 29 29 29 29 29 30 31 31 31 31 32 32 32 32

ECMWFNIL_700_spd_033.txt.gz
Wind_Speed
18 16 13 11 9 7 5 3 4 6 8 9 9 9 9 8 7 6 7 8 8 8 8 7 7 8 10 12 13 13 13 12 12 13 12 11 10 10 11 11 10 10
17 15 13 11 9 7 5 4 6 8 10 10 10 10 9 8 7 7 7 7 8 8 8 8 8 8 9 11 12 14 15 15 14 13 12 11 11 11 11 11 12 12
16 14 13 11 9 7 6 6 7 9 11 11 11 10 9 8 6 6 7 7 6 7 7 7 8 8 9 10 12 14 15 16 15 13 12 11 11 11 11 12 12 12
16 15 14 12 10 8 8 8 8 10 11 11 11 10 9 8 5 5 7 6 6 5 6 6 7 8 9 10 11 13 15 15 14 12 12 12 11 11 11 12 13 13
18 16 15 12 10 10 10 10 9 10 11 11 10 9 9 7 5 5 7 7 6 5 5 6 8 8 9 9 10 11 13 13 13 12 12 11 10 10 10 12 13 13
20 18 16 14 12 12 12 11 10 10 10 10 10 9 9 7 5 6 7 7 6 5 5 7 8 8 8 9 9 10 11 12 12 11 10 9 9 10 11 12 13 14
21 20 18 16 15 13 13 12 10 10 10 10 9 9 8 7 6 7 8 8 6 6 6 7 7 8 9 9 10 10 11 11 11 10 9 9 10 11 11 12 13 15
22 21 19 18 16 14 14 13 11 11 11 10 10 9 8 6 7 8 9 8 7 6 7 7 8 9 10 11 11 11 11 11 10 10 9 10 11 12 13 13 15 16
22 22 20 19 17 16 15 14 12 12 12 11 10 9 7 7 8 10 10 9 8 7 7 8 9 10 11 12 13 12 12 12 11 11 11 12 13 14 15 15 16 16
23 23 22 21 19 18 17 15 14 13 12 12 11 9 7 7 8 11 11 10 9 8 8 9 10 11 12 13 14 13 13 13 12 13 14 15 15 16 16 17 17 17
25 25 24 23 22 20 19 18 16 15 14 13 11 10 7 7 9 12 12 11 9 9 10 11 11 13 14 14 14 14 14 14 14 15 16 16 16 16 17 18 18 18
26 26 26 25 24 23 21 21 19 16 15 14 12 10 7 6 9 12 12 11 10 10 11 12 13 14 15 15 14 14 14 14 15 16 16 17 17 17 17 18 18 19
28 28 28 28 27 25 24 23 21 18 17 15 12 10 7 7 10 12 12 11 11 11 12 13 14 15 15 15 14 14 14 15 15 16 17 17 18 18 18 18 18 18
30 30 30 31 30 29 26 24 21 19 18 16 12 10 8 7 10 12 11 11 11 12 13 14 15 16 16 15 15 15 15 15 16 17 17 18 19 18 18 18 18 17
31 31 33 35 35 32 28 24 22 20 18 16 12 10 9 8 10 13 12 12 13 13 14 15 16 16 16 16 16 16 16 16 17 17 18 18 18 18 18 17 17 16
29 30 33 36 36 33 29 26 24 21 18 16 12 10 9 9 11 13 13 13 14 15 15 15 15 15 15 15 15 15 15 16 17 17 17 17 17 17 17 17 16 15
27 28 30 30 29 29 28 25 24 22 19 16 13 11 10 9 11 14 15 14 15 16 15 15 15 14 14 14 13 14 14 14 15 16 16 16 17 17 17 17 16 15
26 26 28 27 25 26 26 25 24 22 20 17 14 12 11 10 11 14 16 16 16 16 16 16 16 15 15 15 14 14 14 14 14 14 15 15 16 16 16 16 17 17
24 24 27 28 27 24 23 24 25 23 20 18 16 14 13 12 12 14 16 18 18 18 18 18 18 17 17 16 16 15 15 15 14 14 15 15 16 16 17 17 18 18
22 23 24 26 26 24 23 23 24 23 21 20 18 16 15 13 13 15 16 18 19 19 20 19 19 19 18 17 17 17 16 16 16 16 16 17 17 18 18 19 19 20
21 20 22 23 24 24 24 23 24 24 23 21 19 18 17 16 15 15 16 18 19 20 20 20 20 20 19 19 19 19 19 19 19 19 19 20 20 20 21 21 22 22
20 21 22 23 23 24 24 24 24 24 24 22 21 20 19 18 18 18 18 18 19 20 20 20 21 21 21 21 21 21 21 22 22 22 22 23 23 24 24 24 25 26
21 22 22 22 22 24 24 23 24 25 25 23 23 22 22 22 21 21 20 20 19 20 20 20 21 22 22 23 23 23 23 24 24 24 24 25 25 25 26 26 27 28
21 21 21 20 20 21 21 22 24 25 25 24 24 24 24 24 24 23 23 23 22 22 21 22 22 23 24 24 24 25 25 26 26 26 26 26 26 26 27 27 28 28
18 17 19 20 20 20 21 23 24 23 22 24 26 27 27 26 26 26 26 25 25 24 23 23 24 25 25 26 26 26 27 28 28 29 29 29 29 29 29 30 30 31
15 14 15 15 16 18 20 22 22 22 20 19 20 23 26 26 28 30 30 30 30 29 26 25 26 27 27 28 29 30 30 31 32 32 32 33 33 33 33 33 33 34

ECMWFNIL_700_spd_036.txt.gz
Wind_Speed
21 20 18 15 14 12 10 8 5 3 2 2 3 3 3 3 4 5 7 8 9 11 10 8 7 8 8 9 10 12 13 14 14 14 14 14 14 14 14 14 12 12
21 19 17 15 14 13 11 8 6 4 3 3 4 4 4 3 3 5 7 8 9 11 10 9 8 7 8 9 10 12 13 13 14 14 14 14 14 13 13 14 13 11
21 19 17 16 15 13 11 9 7 5 4 4 4 4 4 3 3 4 7 9 9 10 10 10 9 8 8 9 10 12 12 12 14 14 13 13 12 13 13 14 15 12
21 19 18 17 16 14 12 10 8 7 6 5 5 5 4 3 3 4 7 9 9 9 10 10 10 9 9 9 10 11 12 13 14 14 13 13 13 13 13 14 14 12
22 20 19 18 16 15 13 11 10 8 7 6 7 6 5 3 3 4 7 9 9 8 9 9 9 9 9 9 9 11 12 14 15 14 14 13 14 13 13 13 13 13
23 21 20 18 16 15 13 12 10 9 8 8 8 8 6 4 3 5 7 8 8 8 9 10 10 9 9 9 9 10 11 12 14 14 13 12 12 12 12 13 14 15
24 23 21 18 16 15 14 12 11 11 10 9 9 9 8 6 4 5 6 7 7 7 8 9 9 9 9 9 9 10 11 12 12 13 11 11 11 11 11 12 14 15
26 24 22 19 18 16 15 14 13 13 12 10 10 9 8 7 6 6 6 6 7 7 7 8 8 8 9 10 10 11 13 13 13 13 12 11 11 10 11 12 13 13
27 25 23 22 20 18 17 16 15 14 13 12 10 10 9 8 7 7 6 7 6 6 6 6 7 8 10 12 13 13 14 14 13 13 12 12 12 13 13 14 13 13
28 26 25 24 22 20 19 18 17 16 14 12 11 10 10 9 8 8 8 8 7 7 7 8 8 9 10 11 13 13 14 13 13 12 12 13 14 16 16 17 16 15
29 28 27 26 24 22 21 20 19 17 16 14 12 11 11 9 8 8 9 9 9 10 10 10 11 11 11 10 10 11 13 14 14 13 13 14 15 16 17 18 17 16
30 29 28 27 26 24 23 21 20 19 17 15 14 13 12 10 9 9 10 11 11 11 11 11 12 13 13 14 13 12 13 14 14 14 14 15 16 17 17 18 18 17
30 30 29 29 28 26 25 23 22 20 19 18 16 14 13 11 10 10 11 12 12 12 12 12 13 14 15 16 15 15 15 14 14 14 15 16 17 18 18 18 19 19
31 31 31 30 28 28 27 26 24 22 21 20 17 14 13 12 11 11 12 13 12 12 12 13 14 15 16 17 17 17 16 14 14 14 15 17 17 18 18 18 19 19
30 31 32 31 30 29 28 28 27 25 23 21 18 15 13 12 12 12 13 13 13 13 13 14 15 15 16 16 16 16 16 15 15 15 16 17 18 18 18 18 19 19
31 32 32 32 31 31 30 30 30 28 25 22 19 15 13 13 12 12 13 14 14 13 13 13 14 15 15 15 15 15 15 15 16 17 18 18 19 19 19 19 19 19
33 32 32 33 33 32 31 31 31 29 27 24 21 17 14 14 13 13 14 15 14 14 13 13 14 15 15 15 15 15 15 16 17 18 20 20 20 20 21 21 21 21
34 34 34 35 34 32 30 30 30 29 26 25 23 19 16 15 14 14 15 16 15 15 15 14 15 16 16 16 16 16 16 17 18 19 20 21 22 22 23 22 23 23
38 37 36 35 33 29 27 27 27 26 24 23 22 19 17 17 16 15 16 17 17 17 16 16 16 17 17 17 17 17 17 18 19 20 21 22 22 23 22 21 22 23
38 37 36 33 30 28 26 25 24 23 22 21 20 19 19 19 17 16 16 18 19 18 18 18 18 18 18 18 18 18 18 19 19 21 22 22 23 23 23 22 23 23
33 33 32 30 28 27 26 25 24 23 22 21 22 22 21 19 18 17 17 18 19 20 20 20 20 20 20 19 19 20 20 20 21 22 23 23 24 24 24 24 24 24
27 28 28 26 25 26 25 24 23 23 22 22 23 24 22 20 19 19 18 18 19 20 21 22 22 22 22 21 21 22 22 22 22 23 23 24 24 24 25 25 25 25
26 26 25 23 23 23 23 23 23 23 23 23 24 24 23 21 20 20 20 20 19 20 22 23 24 24 24 24 24 24 24 24 24 25 25 25 26 26 26 27 27 27
27 26 24 23 23 23 23 22 22 22 24 24 24 24 23 22 22 22 22 21 21 21 21 23 24 24 25 25 26 26 26 27 27 28 28 28 28 29 29 30 30 30
23 22 22 22 21 22 22 21 22 23 25 25 25 25 25 23 23 24 24 23 23 22 22 22 23 23 24 25 26 27 28 28 29 30 30 30 31 31 31 33 33 33
20 19 19 18 18 20 22 22 22 22 22 23 22 22 23 24 25 24 24 25 24 22 22 23 23 24 24 25 27 28 29 29 30 30 31 31 32 32 33 34 34 35

ECMWFNIL_700_spd_042.txt.gz
Wind_Speed
14 15 16 16 15 15 13 11 9 8 7 7 5 5 4 4 5 7 8 9 9 10 10 10 10 10 10 9 9 8 6 7 7 6 7 8 9 10 11 11 12 12
16 17 18 18 18 17 14 12 10 9 8 6 5 4 3 4 5 7 8 9 10 10 10 10 10 11 10 10 9 7 7 7 6 5 7 7 7 9 11 11 11 12
17 19 20 20 19 16 14 12 12 10 8 6 4 3 3 3 5 6 7 9 10 10 11 11 11 11 10 8 7 5 6 8 7 6 7 8 8 9 10 10 10 11
19 21 21 20 18 15 14 14 12 10 8 5 4 3 3 4 5 6 7 8 9 10 11 11 11 11 10 8 7 6 7 7 6 6 6 8 9 9 9 9 10 11
19 22 21 19 17 16 15 14 12 10 8 5 5 4 4 4 5 6 6 7 8 9 10 10 10 11 10 9 9 8 7 7 4 4 4 6 11 11 9 9 9 10
19 22 21 19 19 17 16 15 13 11 9 8 7 5 4 4 4 5 5 6 7 8 8 9 10 11 11 10 9 8 8 7 5 4 4 4 8 10 10 9 8 9
20 22 22 20 20 18 17 16 14 12 11 9 8 5 3 3 3 4 5 6 7 8 8 8 8 10 10 10 9 8 8 7 6 6 5 5 5 6 7 8 7 8
20 22 23 22 20 19 18 17 16 15 13 10 9 5 2 2 2 4 5 6 7 8 8 8 8 8 9 9 9 8 8 7 6 6 6 6 5 5 6 6 6 7
21 22 23 23 22 21 20 19 17 16 14 11 9 6 3 2 2 3 4 5 6 7 7 8 8 8 9 9 9 9 8 7 6 6 7 6 7 6 5 5 5 6
20 22 24 25 25 23 21 21 19 17 15 13 10 7 4 3 2 3 4 4 5 6 7 7 8 9 10 10 9 9 9 8 8 8 7 7 7 6 6 6 7 7
21 23 27 28 27 25 23 21 20 19 16 14 12 9 6 4 2 2 3 4 5 6 7 8 9 9 10 10 10 10 9 9 9 8 7 7 7 7 9 9 8 8
25 28 30 30 29 28 25 22 22 20 17 15 13 10 7 6 4 2 3 3 4 6 8 10 10 10 11 10 12 12 10 11 10 9 10 8 6 8 9 8 8 9
27 30 32 32 31 29 26 24 23 20 18 16 14 11 9 8 5 4 3 3 5 7 8 9 10 10 10 10 11 12 11 11 10 10 12 10 7 9 9 6 8 10
30 32 33 32 31 28 27 26 23 21 20 18 16 13 11 9 7 6 5 4 6 7 6 6 8 9 9 9 10 10 9 9 8 11 13 11 10 11 9 7 8 10
33 35 34 32 31 29 28 27 25 23 22 19 16 14 12 10 8 8 7 7 7 7 5 5 7 8 9 9 10 10 9 8 9 10 11 11 12 11 8 8 9 10
34 34 35 34 33 31 29 27 26 26 24 20 17 16 13 11 10 10 10 9 7 7 7 6 7 8 9 10 11 12 12 10 9 9 9 10 10 10 10 10 11 11
33 34 36 35 33 31 30 29 28 28 24 20 18 17 15 14 14 13 13 12 8 8 9 9 8 9 9 10 11 13 14 14 11 9 9 9 9 10 11 10 11 12
34 36 36 33 31 31 31 30 29 27 23 20 20 19 18 18 18 16 16 15 12 11 11 10 9 9 10 11 11 12 15 15 14 13 12 12 11 10 11 11 11 13
36 35 34 32 31 31 31 29 27 25 23 22 22 21 21 21 19 17 17 17 15 13 12 11 11 10 10 11 11 12 13 14 15 15 14 15 15 13 13 11 11 13
34 34 34 32 31 30 29 28 28 26 25 24 23 23 22 21 18 17 18 18 16 15 13 12 11 11 11 12 12 13 13 14 14 14 14 15 16 15 13 11 10 12
34 35 34 32 31 31 31 29 28 27 27 26 25 25 23 21 19 17 16 17 17 16 14 13 12 12 12 12 13 13 13 13 13 13 13 13 13 13 13 13 13 14
37 36 35 34 34 34 33 31 30 29 29 29 28 26 24 22 20 17 15 15 17 15 12 12 12 12 13 13 13 13 13 13 13 13 13 13 12 13 15 16 17 17
37 36 36 38 38 36 34 32 32 31 31 31 30 27 25 24 22 18 14 15 16 14 12 11 11 12 13 13 14 14 14 14 14 15 15 14 14 16 17 18 18 20
36 35 36 38 37 36 36 34 33 34 33 32 31 28 26 25 22 20 16 16 17 15 12 11 12 13 14 14 15 15 15 16 16 17 16 16 17 18 18 18 19 20
30 29 30 32 32 33 33 32 32 33 33 32 31 30 28 25 21 19 17 17 18 16 13 12 13 13 14 15 16 16 16 17 17 17 16 16 18 19 20 20 21 22
26 27 27 28 31 32 32 30 30 32 33 33 31 30 27 23 19 17 17 18 19 17 14 14 14 14 14 15 16 17 18 18 19 19 19 19 20 22 24 26 26 25

ECMWFNIL_700_spd_045.txt.gz
Wind_Speed
13 13 13 13 15 16 16 16 15 13 13 11 10 9 8 7 7 6 7 8 9 10 11 11 10 9 8 8 7 7 10 11 11 11 12 13 14 14 15 17 17 17
13 13 14 15 17 18 18 17 16 14 13 12 11 9 8 7 7 7 8 8 9 10 10 10 10 9 9 8 8 9 9 10 10 11 13 13 14 15 15 16 16 17
13 13 13 16 18 19 18 18 17 16 14 13 12 10 9 8 7 7 8 8 9 9 9 9 10 10 10 9 9 9 9 10 10 12 13 13 15 15 15 16 15 16
14 13 14 17 19 19 18 17 17 16 15 13 11 9 7 7 7 8 8 8 9 10 10 10 10 11 11 9 8 8 10 11 12 12 13 14 15 16 16 15 15 16
15 14 15 17 19 20 19 18 17 16 15 12 10 8 6 5 6 7 8 9 10 11 11 11 11 11 11 9 7 8 9 10 11 11 12 13 14 15 16 16 16 16
17 16 16 18 18 19 19 18 16 15 14 11 9 7 5 4 5 6 7 9 11 12 11 11 11 12 11 10 9 10 9 9 10 11 12 13 13 14 15 15 15 16
19 18 18 19 19 19 18 17 15 15 13 11 8 6 4 3 4 6 7 8 10 11 11 11 11 11 11 11 11 12 11 10 10 11 13 13 13 13 14 13 14 14
20 20 20 20 20 20 19 17 16 15 14 11 9 6 4 3 3 5 7 7 8 9 10 9 9 9 10 11 11 12 12 12 12 12 12 13 13 13 13 13 13 13
22 22 22 23 23 22 20 18 17 16 14 12 9 7 5 3 3 4 5 6 6 7 8 9 9 10 11 11 11 12 13 13 14 14 13 12 12 12 13 13 13 13
22 24 25 24 24 23 21 19 19 17 15 13 11 9 7 4 3 4 4 5 6 7 9 10 11 12 11 11 11 11 12 13 14 17 17 15 14 14 13 13 13 13
22 23 25 25 24 23 22 21 20 18 16 14 12 10 9 6 4 4 4 5 7 9 10 11 12 12 12 13 12 12 11 11 13 15 18 18 17 16 14 14 13 13
23 24 25 26 25 24 23 22 20 19 17 15 13 11 10 7 6 5 5 6 7 9 10 11 11 10 12 13 13 13 12 11 12 13 15 16 16 16 15 14 13 12
25 27 27 28 27 25 25 23 21 20 19 16 14 13 11 10 9 7 6 5 6 6 7 8 8 9 10 11 12 12 12 12 12 13 15 16 16 16 15 14 13 12
26 29 30 29 28 26 26 25 23 22 21 18 15 14 13 12 11 9 6 4 3 4 5 7 8 9 10 10 10 10 11 12 13 14 15 16 16 15 14 13 13 13
28 30 31 32 31 29 28 27 25 24 22 19 17 16 14 13 12 10 6 3 2 2 4 6 8 9 10 10 10 10 10 11 12 13 15 16 15 13 12 10 11 13
28 30 31 33 32 30 29 28 27 25 23 19 18 17 16 15 13 10 7 4 2 2 4 6 8 10 11 11 12 12 11 11 11 12 13 13 13 11 10 10 11 13
29 29 30 32 31 28 28 29 27 25 24 22 20 18 17 16 13 11 9 7 5 4 5 6 8 10 11 12 13 14 14 14 13 13 13 12 12 12 12 12 12 14
29 29 30 31 29 26 27 29 29 26 26 25 23 20 19 17 14 13 11 9 7 6 7 8 9 10 12 13 14 15 16 17 15 15 15 15 15 15 14 14 15 16
29 29 31 31 29 27 27 30 31 29 29 28 25 22 20 18 16 15 13 11 9 8 9 11 12 12 13 13 14 15 17 18 18 18 17 17 17 16 15 15 15 14
28 29 30 29 29 29 29 30 31 32 31 28 25 22 20 19 18 16 15 13 11 10 11 13 14 14 14 14 15 16 17 18 20 20 19 18 18 17 16 15 13 11
28 30 30 30 30 31 30 29 32 33 31 27 24 22 21 21 20 18 16 14 13 11 12 15 16 15 15 15 16 16 17 18 19 19 19 19 18 17 17 16 14 11
28 30 32 32 32 33 31 30 32 32 29 27 25 24 24 23 21 19 16 14 13 12 12 15 17 16 15 15 16 16 17 18 18 19 19 19 17 16 17 17 16 14
27 29 31 31 32 34 32 31 33 33 29 28 27 26 25 23 21 19 17 15 14 13 13 16 17 16 16 15 15 15 16 17 18 18 19 19 18 18 18 17 16 15
24 27 28 28 31 34 32 32 35 35 30 29 27 26 25 23 23 21 19 17 16 15 15 17 18 17 16 16 16 15 16 16 17 16 16 17 17 18 18 17 16 15
25 27 29 30 31 32 31 33 36 34 30 28 27 26 26 26 26 25 22 20 19 18 18 19 19 18 16 16 16 16 15 16 16 16 16 15 15 16 16 15 14 14
29 28 29 33 32 30 33 37 36 32 29 28 28 28 30 31 31 29 25 22 21 21 20 21 20 19 17 16 16 16 15 16 16 17 17 16 16 16 16 16 16 16

ECMWFNIL_700_spd_048.txt.gz
Wind_Speed
18 16 15 13 15 16 16 16 16 16 16 15 14 14 14 15 14 13 13 12 12 12 13 13 14 14 14 14 13 14 16 17 17 17 18 18 18 17 18 18 18 18
22 20 18 16 16 17 16 17 17 17 16 16 15 15 15 14 13 12 12 11 12 13 13 14 14 13 13 13 13 14 15 16 17 18 18 18 18 18 17 17 18 19
23 23 21 18 17 17 17 18 17 18 17 16 15 15 14 13 13 12 11 10 11 12 13 13 13 13 14 14 13 13 14 15 16 17 17 18 19 19 18 17 18 19
23 23 21 20 19 18 18 19 18 18 17 16 15 14 13 13 13 12 11 11 11 12 12 13 14 15 16 15 14 14 14 14 16 16 17 18 19 19 18 18 19 19
22 22 22 22 21 20 20 19 19 18 17 16 15 13 13 12 12 11 11 11 12 12 12 13 13 15 16 16 15 14 15 15 15 16 17 18 18 18 18 18 19 19
22 24 25 26 25 24 22 20 19 19 17 16 15 13 13 11 10 10 10 11 12 12 11 12 13 15 16 16 15 15 15 15 15 15 16 17 17 18 17 17 18 18
23 26 28 28 28 27 24 22 21 20 18 17 16 14 12 10 9 10 10 12 13 12 11 11 13 15 15 16 16 16 15 15 15 15 16 16 17 17 17 17 18 19
24 26 27 28 29 29 27 24 23 22 20 18 16 13 10 9 8 9 10 11 12 12 12 12 13 15 16 17 17 17 16 15 15 15 16 16 16 17 17 18 19 19
25 28 27 28 29 29 27 25 24 23 21 18 15 13 11 9 8 9 10 10 11 12 12 12 14 15 16 17 18 18 17 16 15 15 15 16 16 16 17 18 19 18
28 29 28 29 30 28 27 25 24 23 21 19 16 14 12 10 9 9 9 10 11 12 13 13 14 15 16 18 19 19 18 17 17 16 16 17 17 17 17 17 17 17
28 28 26 28 31 29 28 26 25 23 22 20 18 16 14 12 10 9 9 10 11 12 13 14 15 15 15 17 18 19 18 18 18 17 18 18 18 18 18 17 17 17
24 25 24 26 30 30 28 28 26 25 24 22 19 18 16 14 12 10 9 9 10 12 12 12 14 14 15 16 17 18 18 19 18 18 19 19 18 18 18 18 17 17
24 23 23 25 29 30 28 27 27 26 24 22 21 19 17 15 13 11 9 7 8 10 10 11 12 13 14 15 16 17 18 18 18 17 18 19 19 18 17 17 17 17
24 24 22 23 25 28 28 26 26 26 25 23 22 21 18 16 14 11 9 7 7 9 9 10 11 11 13 14 15 16 17 17 17 17 18 18 19 20 18 17 17 17
24 26 25 23 22 25 29 27 27 27 27 26 24 22 19 17 16 13 10 8 8 9 9 10 11 11 12 13 14 15 16 16 17 17 17 18 19 19 18 18 18 19
27 27 27 26 23 23 27 30 30 29 29 28 27 24 21 19 18 15 12 11 10 10 10 10 11 12 13 13 14 14 15 15 16 17 17 17 18 18 17 18 20 21
28 29 30 30 26 24 27 31 32 31 31 31 29 26 23 22 20 17 15 15 13 11 11 10 11 12 13 14 15 15 15 16 16 17 17 17 18 18 17 19 19 20
27 32 32 30 28 28 29 33 35 35 34 33 31 28 26 24 21 19 18 18 16 13 12 11 11 11 13 14 16 17 17 17 17 18 18 18 18 19 20 20 19 18
29 32 31 29 29 31 31 33 38 39 37 34 32 29 27 25 23 22 22 20 17 15 13 12 11 12 13 15 16 18 18 19 19 19 19 18 18 18 19 20 19 18
29 30 31 30 29 31 32 33 36 38 37 35 33 30 29 27 25 24 24 22 19 16 14 12 12 13 14 16 18 19 20 20 21 21 21 20 17 16 16 17 17 17
25 26 29 31 31 32 31 31 34 36 37 37 35 32 30 28 26 26 25 23 20 17 14 12 12 14 16 17 19 21 21 21 22 23 23 21 18 16 16 16 14 14
22 23 25 29 35 36 33 33 36 36 37 39 37 34 32 30 28 28 27 24 21 17 14 13 14 16 18 19 20 21 22 22 23 24 24 23 20 19 18 17 16 16
17 20 22 26 35 38 35 33 36 37 37 40 39 36 34 32 31 31 29 26 23 19 16 14 14 17 19 20 20 21 21 22 23 23 25 25 24 23 22 21 20 20
13 17 22 25 31 37 36 34 35 36 37 40 39 36 35 34 34 33 31 28 25 21 18 16 15 17 20 21 21 21 21 22 22 22 23 24 25 25 24 23 23 22
13 16 20 22 24 32 39 38 34 34 37 40 38 36 37 37 36 35 32 30 26 23 20 17 16 17 20 21 22 22 21 22 22 21 22 22 23 23 22 22 22 21
10 13 17 19 21 31 40 40 36 34 36 38 37 36 38 38 37 36 33 30 27 23 21 19 18 19 22 23 23 22 21 21 21 21 21 21 21 20 20 20 20 19